Preview of NWS' New Version of Forecast
This preview is not operational and should not be used for support decisions.

Regional Weather Roundup (RWR)

Issued by National Weather Service (NWS)

                            
000
ASUS45 KCYS 240310
RWRWY 

WYOMING REGIONAL WEATHER ROUNDUP
NATIONAL WEATHER SERVICE CHEYENNE WY
900 PM MDT FRI AUG 23 2019

NOTE:  "FAIR" INDICATES FEW OR NO CLOUDS BELOW 12,000 FEET
WITH NO SIGNIFICANT WEATHER AND/OR OBSTRUCTIONS TO VISIBILITY.

WYZ001-240400-
YELLOWSTONE NATIONAL PARK
  
CITY           SKY/WX    TMP DP  RH WIND       PRES   REMARKS
LK YELLOWSTONE   N/A     52  38  58 NW3       30.20R                  
W YELLOWSTONE  NOT AVBL                                               

$$
WYZ002>013-054>058-071-098>099-240400-
NORTHERN WYOMING
  
CITY           SKY/WX    TMP DP  RH WIND       PRES   REMARKS
JACKSON        FAIR      61  36  39 W6        30.11R                  
CODY           FAIR      64  46  52 SW5       30.03R                  
GREYBULL       FAIR      68  49  50 S5        29.95R                  
WORLAND        FAIR      63  54  72 SE10      29.98R                  
SHERIDAN       LGT RAIN  59  55  87 S8        30.02R                  
BUFFALO        RAIN      57  53  86 N15G24      N/A  FOG              
GILLETTE       LGT RAIN  58  55  90 N5        30.00F                  
HULETT         CLOUDY    59  54  82 SW25G38   30.10                   
NEWCASTLE      TSTM      55  50  82 N14       30.06                   

$$
WYZ014>020-022>026-101>103-240400-
CENTRAL WYOMING
  
CITY           SKY/WX    TMP DP  RH WIND       PRES   REMARKS
BIG PINEY      FAIR      59  36  42 N12       30.13R                  
PINEDALE       FAIR      55  37  50 NW7       30.14                   
DUBOIS         FAIR      52  43  71 W3        30.15                   
LANDER         FAIR      60  49  66 SW9       30.04S                  
RIVERTON       FAIR      60  51  72 W9        30.04R                  
CASPER         FAIR      64  52  64 E14G23    29.99F                  
DOUGLAS        TSTM      58  53  84 VRB6      30.06R                  

$$
WYZ021-027>030-104>119-240400-
SOUTHERN WYOMING
  
CITY           SKY/WX    TMP DP  RH WIND       PRES   REMARKS
EVANSTON       FAIR      61  33  35 W8        30.16R                  
KEMMERER       FAIR      61  28  29 W10       30.16                   
ROCK SPRINGS   FAIR      67  16  14 W8        30.10R                  
DIXON          FAIR      67  26  21 E12G18    30.09R                  
RAWLINS        FAIR      61  35  37 CALM      30.07R                  
SARATOGA       FAIR      66  30  26 E5        30.10R                  
LARAMIE        MOCLDY    63  45  51 E8        30.16R                  
CHEYENNE       FAIR      58  49  72 S5        30.10R                  
TORRINGTON     FAIR      63  53  70 NE14      29.94F                  
PINE BLUFFS    FAIR      57  50  77 E7        30.03F                  

$$